Regional Weather Roundup
Issued by NWS

Home | Current Version | Previous Version | Text Only | Print | Product List | Glossary On
Versions: 1 2 3 4 5 6 7 8 9 10 11 12 13 14 15 16 17 18 19 20 21 22 23 24 25 26 27 28 29 30 31 32 33 34 35 36 37 38 39 40 41 42 43 44 45 46 47 48 49 50
000
ASUS46 KPQR 280410
RWROR

OREGON REGIONAL WEATHER ROUNDUP
NATIONAL WEATHER SERVICE PORTLAND OR
900 PM PDT MON JUL 27 2015

NOTE: "FAIR" INDICATES FEW OR NO CLOUDS BELOW 12,000 FEET WITH
NO SIGNIFICANT WEATHER AND/OR OBSTRUCTIONS TO VISIBILITY.

ORZ001>013-280500-
NORTHWEST OREGON


CITY           SKY/WX    TMP DP  RH WIND       PRES   REMARKS
ASTORIA        PTCLDY    63  54  72 NW10      30.26S
NEWPORT        CLEAR     61  54  77 N10       30.26S
PORTLAND       PTCLDY    70  51  51 N8        30.20R
VANCOUVER WA   CLEAR     70  49  47 NW7       30.20R
SCAPPOOSE      CLEAR     68  49  50 N7        30.21R
HILLSBORO      CLEAR     66  49  54 N7        30.21R
AURORA         CLEAR     69  49  48 NW6       30.21R
MCMINNVILLE    CLEAR     70  49  47 N8        30.21R
SALEM          CLEAR     70  49  47 NW8       30.19R
CORVALLIS      CLEAR     68  52  56 NW10      30.21R
EUGENE         CLEAR     66  45  46 N7        30.18S
$$

ORZ021-028-280500-
SOUTHWEST OREGON


CITY           SKY/WX    TMP DP  RH WIND       PRES   REMARKS
NORTH BEND     CLEAR     63  57  82 N25       30.20S
BROOKINGS      CLEAR     75  52  44 VRB6      30.03S
ROSEBURG       CLEAR     74  44  34 N9        30.15R
SEXTON SUMMIT  CLEAR     56  38  50 N10G18    30.20S
MEDFORD        CLEAR     76  43  30 NW9       30.10R
$$

ORZ014>016-041-280500-
COLUMBIA GORGE


CITY           SKY/WX    TMP DP  RH WIND       PRES   REMARKS
TROUTDALE      CLEAR     71  49  45 NW8       30.19R
THE DALLES     CLEAR     72  43  35 W13       30.12R
$$

ORZ029>031-041-044-049-050-061>064-502-503-505>511-280500-
EASTERN OREGON


CITY           SKY/WX    TMP DP  RH WIND       PRES   REMARKS
REDMOND        CLEAR     61  36  39 N3        30.21R
BEND           CLEAR     61  32  33 N9        30.22R
PRINEVILLE     CLEAR     61  37  41 N8        30.20R
KLAMATH FALLS  CLEAR     66  40  38 N10       30.17R
LAKEVIEW       CLEAR     55  34  44 NE5       30.20R
HERMISTON      CLEAR     72  45  37 W12       30.08R
PENDLETON      PTCLDY    67  39  35 W12       30.11R
JOHN DAY       CLEAR     62  33  34 N6        30.19S
MEACHAM        CLEAR     52  37  56 CALM      30.20R
LA GRANDE      CLEAR     61  32  33 NW6       30.17R
BAKER CITY     CLEAR     53  36  52 NW5       30.19R
BURNS          CLEAR     57  25  29 NW8       30.20R
ROME             N/A     63  21  20 NW8       30.17R
ONTARIO        CLEAR     64  34  32 NW6       30.14R
$$



USA.gov is the U.S. government's official web portal to all federal, state and local government web resources and services.